[[{"header":{"parameterUnit":"m.s-1","parameterCategory":1,"la1":30.2991,"la2":30.254,"lo1":-89.0895,"lo2":-89.0444,"dy":0.0017,"dx":0.0017,"nx":28,"ny":28,"refTime":"2023-08-14T09:00:00:Z","depth":0,"parameterNumber":2,"parameterNumberName":"U-component_of_WINDS"},"data":[0,0,0,0,0,0,0,0,0,0,0,0,0,0,0,0,0,0,0,0,0,0,0,0,0,0,0,0,0,0,0,0,0,0,0,0,0,0,0,0,0,0,0,0,0,0,0,0,0,0,0,0,0,0,0,0,0,0,5.7531,5.7533,0,5.7704,5.7706,5.7708,5.7647,5.7643,5.7639,5.7636,5.7813,5.7821,5.7829,0,0,0,0,0,0,0,0,0,0,0,0,0,5.7147,5.7155,5.7531,5.7533,5.7535,5.7703,5.7706,5.7708,5.7648,5.7643,5.7638,5.7634,5.781,5.782,5.783,0,0,0,0,0,0,0,0,0,0,0,0,0,5.7316,5.7157,5.7531,5.7525,5.7527,5.7703,5.7706,5.7709,5.7649,5.7643,5.7637,5.7632,5.7807,5.7819,5.7831,5.8024,0,0,5.7869,5.7875,0,0,0,0,0,0,0,0,5.7307,5.7331,5.7524,5.7526,5.7528,5.7648,5.7635,5.7814,5.765,5.7602,5.7635,5.7629,5.7763,5.7778,5.7824,5.8032,5.8039,5.7871,5.7878,5.7883,5.7887,0,0,0,0,0,0,0,5.7295,5.7323,5.7599,5.7527,5.7529,5.7514,5.7531,5.7669,5.7713,5.7606,5.7602,5.7623,5.7763,5.7812,5.7827,5.8042,5.787,5.7881,5.7889,5.7894,5.8413,5.8419,0,0,0,0,0,0,5.7283,5.7313,5.7594,5.7604,5.7401,5.7525,5.7545,5.7615,5.7711,5.772,5.7628,5.762,5.7793,5.7813,5.7833,5.8062,5.7883,5.7895,5.7902,5.8407,5.8414,5.8421,0,0,0,0,0,0,5.7275,5.7308,5.7587,5.7458,5.7492,5.7538,5.7617,5.7622,5.767,5.7728,5.7735,5.767,5.7789,5.7816,5.7976,5.8067,5.7901,5.7912,5.8399,5.8409,5.8418,5.8522,0,0,0,0,0,0,5.7264,5.7306,5.738,5.746,5.7499,5.7727,5.7623,5.7629,5.7692,5.7683,5.7769,5.7778,5.7787,5.7958,5.7988,5.8081,5.7922,5.8391,5.8404,5.8415,5.851,5.8534,5.8554,0,0,0,0,0,5.725,5.7403,5.7384,5.7418,5.7593,5.7733,5.7755,5.7762,5.77,5.7774,5.781,5.7775,5.8053,5.7974,5.8009,5.8107,5.8386,5.84,5.8414,5.8501,5.8529,5.8553,0,0,0,0,0,0,5.7333,5.7414,5.7393,5.7576,5.7648,5.7722,5.7816,5.7793,5.7884,5.7872,5.7877,5.7897,5.8061,5.81,5.8012,5.8296,5.821,5.8231,5.8264,5.8291,5.8313,5.8299,5.7932,0,0,0,0,0,5.7372,5.748,5.7544,5.7699,5.7736,5.777,5.7832,5.7831,5.7905,5.7935,5.7983,5.8057,5.816,5.8228,5.8327,5.8516,5.8533,5.8601,5.8622,5.864,5.8658,5.8757,5.8787,5.8468,5.8468,5.8468,0,0,5.7455,5.7512,5.758,5.7717,5.7773,5.7882,5.7796,5.7917,5.7998,5.7954,5.8107,5.8145,5.8227,5.8402,5.8481,5.844,5.8749,5.8658,5.8671,5.868,5.8775,5.8805,5.8832,5.8478,5.8476,5.8474,0,0,5.7661,5.7717,5.785,5.7907,5.7992,5.8013,5.8045,5.8123,5.8146,5.83,5.8268,5.8364,5.8543,5.8602,5.8656,5.8882,5.8852,5.8914,5.9026,5.9123,5.9149,5.9171,5.9248,5.9277,5.8932,5.8933,5.8933,0,5.7753,5.7917,5.7922,5.8045,5.8105,5.8069,5.8204,5.8259,5.8372,5.8414,5.8366,5.8587,5.8641,5.8827,5.8882,5.8928,5.8963,5.8903,5.9145,5.9167,5.9188,5.9262,5.9291,5.8939,5.8939,5.8938,5.8937,0,5.8025,5.8139,5.8237,5.8345,5.8417,5.8545,5.8568,5.864,5.8633,5.8659,5.8814,5.8877,5.8986,5.9031,5.9026,5.9216,5.9187,5.9142,5.9055,5.9225,5.9294,5.9323,5.8949,5.8947,5.8945,5.8943,0,0,5.8288,5.8395,5.8431,5.8478,5.8568,5.8656,5.8782,5.8888,5.8948,5.9028,5.9131,5.9283,5.9241,5.9301,5.9302,5.9388,5.9559,5.9332,5.9334,5.937,5.9769,5.98,5.9833,5.9541,5.9546,5.9551,5.9761,0,5.8498,5.8718,5.8725,5.8926,5.903,5.8997,5.9106,5.9173,5.92,5.9292,5.9322,5.9428,5.9367,5.9402,5.9486,5.9521,5.9639,5.9506,5.9636,5.964,5.9613,5.987,5.9904,6.01,5.9789,5.9793,5.9797,0,5.8774,5.886,5.9071,5.9143,5.9187,5.9285,5.9381,5.947,5.9544,5.9557,5.9624,5.9612,5.9739,5.9649,5.9823,5.9732,5.9786,5.9811,5.9818,5.9829,5.9727,5.9885,6.0163,6.0191,5.984,5.9837,5.9834,0,5.8941,5.9109,5.9256,5.9298,5.9387,5.9456,5.9496,5.9565,5.9627,5.9711,5.9751,5.985,5.9903,5.9979,5.9993,5.9927,6.0166,6.0078,6.0179,6.0179,6.0229,6.0226,6.0517,6.0269,6.0269,6.0268,6.0267,0,5.9174,5.9304,5.9332,5.9422,5.9565,5.9572,5.9714,5.9749,5.9809,5.9905,5.9883,5.9973,5.9988,6.0081,6.0093,6.0233,6.0258,6.0271,6.0272,6.0272,6.027,6.0305,6.0291,6.0276,6.0274,6.0273,6.0271,0,5.9384,5.9408,5.9565,5.9636,5.9657,5.9759,5.9819,5.9905,5.9929,6.005,6.0079,6.0117,6.0225,6.0247,6.0376,6.0384,6.055,6.0539,6.0524,6.0522,6.062,6.061,6.0943,6.0985,6.0712,6.0715,6.0717,0,5.953,5.9628,5.9709,5.9771,5.9814,5.9915,5.9977,5.9987,6.0054,6.0144,6.0218,6.0324,6.0408,6.0583,6.0622,6.0719,6.0709,6.0819,6.0723,6.0718,6.0706,6.0699,6.0708,6.0836,6.0839,6.0842,6.0844,0,5.9785,5.9792,5.9883,5.9978,6.0054,6.0129,6.0201,6.0253,6.0273,6.0348,6.0458,6.0523,6.0653,6.0758,6.0855,6.0895,6.0872,6.0873,6.0901,6.09,6.0886,6.0892,6.0571,6.0865,6.0863,6.0861,6.086,6.0859,5.9966,6.005,6.0119,6.0221,6.0276,6.0343,6.0425,6.046,6.0551,6.0657,6.0658,6.0777,6.0846,6.0973,6.102,6.1113,6.1078,6.1119,6.1129,6.1138,6.1146,6.0874,6.1131,6.113,6.113,6.1129,6.1129,0,6.0217,6.0259,6.0353,6.0453,6.0532,6.0504,6.0581,6.0649,6.0754,6.0821,6.0904,6.1028,6.1129,6.1175,6.1274,6.1339,6.1331,6.1364,6.1358,6.1367,6.1173,6.1137,6.1369,6.1369,6.1369,6.1369,6.1369,6.1369,6.0357,6.0497,6.0512,6.0679,6.072,6.0836,6.0882,6.0943,6.0996,6.1135,6.1218,6.1248,6.1305,6.1408,6.1498,6.1509,6.1545,6.1583,6.1589,6.1406,6.1381,6.1358,6.1324,6.1591,6.1592,6.1775,6.1776,6.1778]},{"header":{"parameterUnit":"m.s-1","parameterCategory":1,"la1":30.2991,"la2":30.254,"lo1":-89.0895,"lo2":-89.0444,"dy":0.0017,"dx":0.0017,"nx":28,"ny":28,"refTime":"2023-08-14T09:00:00:Z","depth":0,"parameterNumber":3,"parameterNumberName":"V-component_of_WINDS"},"data":[0,0,0,0,0,0,0,0,0,0,0,0,0,0,0,0,0,0,0,0,0,0,0,0,0,0,0,0,0,0,0,0,0,0,0,0,0,0,0,0,0,0,0,0,0,0,0,0,0,0,0,0,0,0,0,0,0,0,1.8231,1.8232,0,1.8316,1.8317,1.8318,1.8307,1.8306,1.8305,1.8303,1.839,1.8394,1.8397,0,0,0,0,0,0,0,0,0,0,0,0,0,1.8057,1.8061,1.8231,1.8232,1.8233,1.8316,1.8317,1.8319,1.8308,1.8306,1.8304,1.8303,1.8389,1.8393,1.8397,0,0,0,0,0,0,0,0,0,0,0,0,0,1.8137,1.8062,1.8231,1.8238,1.8239,1.8316,1.8318,1.8319,1.8308,1.8306,1.8304,1.8302,1.8387,1.8393,1.8398,1.8473,0,0,1.8415,1.8417,0,0,0,0,0,0,0,0,1.8132,1.8143,1.8236,1.8238,1.8239,1.8299,1.8288,1.8371,1.8309,1.8282,1.8303,1.8301,1.8361,1.8369,1.8389,1.8477,1.8481,1.8415,1.8418,1.8421,1.8422,0,0,0,0,0,0,0,1.8127,1.8139,1.8265,1.8237,1.8239,1.8236,1.8245,1.8304,1.8332,1.8284,1.8283,1.8294,1.8362,1.8384,1.8391,1.8482,1.8415,1.842,1.8423,1.8425,1.8635,1.8637,0,0,0,0,0,0,1.812,1.8135,1.8262,1.8268,1.818,1.8241,1.8251,1.8282,1.8332,1.8337,1.8295,1.8293,1.8376,1.8385,1.8394,1.8485,1.8421,1.8426,1.8429,1.8632,1.8635,1.8638,0,0,0,0,0,0,1.8116,1.8131,1.8259,1.8201,1.8217,1.8246,1.8281,1.8285,1.8307,1.834,1.8345,1.8313,1.8375,1.8387,1.8453,1.8488,1.8428,1.8433,1.863,1.8633,1.8636,1.8668,0,0,0,0,0,0,1.8111,1.813,1.8159,1.8202,1.822,1.8317,1.8283,1.8288,1.8317,1.8314,1.8358,1.8363,1.8374,1.8445,1.8459,1.8494,1.8437,1.8627,1.8631,1.8635,1.8664,1.8672,1.8679,0,0,0,0,0,1.8105,1.8165,1.8161,1.8176,1.8258,1.8319,1.833,1.8341,1.8319,1.8349,1.837,1.8362,1.8482,1.8452,1.8467,1.8505,1.8625,1.863,1.8635,1.866,1.867,1.8678,0,0,0,0,0,0,1.8126,1.8171,1.8167,1.8243,1.8277,1.8317,1.8355,1.8351,1.8393,1.8389,1.84,1.841,1.8478,1.8498,1.8464,1.858,1.855,1.8559,1.8564,1.8574,1.8581,1.8575,1.8442,0,0,0,0,0,1.814,1.8186,1.8222,1.8286,1.8303,1.8326,1.8353,1.8359,1.8395,1.841,1.8436,1.8471,1.8516,1.8546,1.859,1.8666,1.8675,1.8699,1.8707,1.8713,1.872,1.8761,1.8772,1.8655,1.8655,1.8655,0,0,1.8168,1.8198,1.8227,1.8291,1.8318,1.8365,1.8339,1.839,1.8425,1.8417,1.8482,1.8502,1.8542,1.8613,1.8646,1.8632,1.8754,1.8719,1.8724,1.8728,1.8767,1.8778,1.8788,1.8658,1.8658,1.8657,0,0,1.8244,1.8272,1.8327,1.8355,1.8396,1.8411,1.8424,1.8465,1.8478,1.8542,1.8537,1.8578,1.8657,1.8685,1.871,1.8794,1.8789,1.8808,1.8848,1.8887,1.8896,1.8905,1.8934,1.8945,1.8815,1.8815,1.8815,0,1.8274,1.8346,1.8356,1.8408,1.8436,1.843,1.8486,1.8512,1.8566,1.8585,1.8568,1.8666,1.8692,1.877,1.879,1.881,1.8825,1.8804,1.8894,1.8903,1.8911,1.8939,1.895,1.8818,1.8817,1.8817,1.8817,0,1.8381,1.843,1.847,1.8521,1.8553,1.8607,1.8624,1.8655,1.8657,1.8673,1.8739,1.877,1.8819,1.8838,1.8841,1.8916,1.8906,1.8892,1.8862,1.8924,1.8951,1.8962,1.8821,1.882,1.8819,1.8819,0,0,1.8474,1.8529,1.8544,1.8567,1.8611,1.865,1.8702,1.875,1.8776,1.8813,1.8857,1.8922,1.8909,1.8937,1.8943,1.8978,1.9042,1.8959,1.896,1.8973,1.9125,1.9136,1.9148,1.9037,1.904,1.9041,1.9122,0,1.8554,1.8648,1.8658,1.8741,1.8786,1.878,1.8826,1.8858,1.8874,1.8914,1.8931,1.8977,1.8956,1.8973,1.9007,1.9027,1.9072,1.9021,1.9078,1.908,1.9069,1.9162,1.9174,1.9249,1.9132,1.9134,1.9136,0,1.8661,1.8701,1.8788,1.8825,1.8845,1.8886,1.893,1.8969,1.9004,1.9013,1.9043,1.9044,1.9097,1.9064,1.9137,1.9102,1.9126,1.9139,1.9142,1.9148,1.9112,1.9171,1.9273,1.9284,1.9152,1.9151,1.915,0,1.872,1.8795,1.8857,1.8877,1.8922,1.895,1.897,1.9004,1.9032,1.907,1.9088,1.9132,1.9156,1.9189,1.9201,1.9177,1.9273,1.9242,1.9282,1.9282,1.9303,1.9302,1.941,1.9318,1.9318,1.9318,1.9317,0,1.8809,1.8863,1.8884,1.8922,1.8982,1.8992,1.905,1.9069,1.9098,1.9139,1.9136,1.9175,1.9188,1.9228,1.9238,1.9296,1.9307,1.9315,1.9317,1.9316,1.9315,1.9332,1.9327,1.932,1.932,1.9319,1.9319,0,1.8886,1.8902,1.8969,1.9006,1.9016,1.9058,1.9089,1.9126,1.914,1.9192,1.9204,1.9227,1.9274,1.9289,1.9346,1.9352,1.942,1.9418,1.9409,1.9409,1.9447,1.9444,1.9571,1.9588,1.9484,1.9485,1.9486,0,1.8942,1.8983,1.9024,1.9051,1.9072,1.9116,1.9144,1.9155,1.9184,1.9226,1.9257,1.9304,1.9342,1.9417,1.9438,1.9482,1.948,1.9521,1.9486,1.9483,1.948,1.9478,1.9482,1.9528,1.9529,1.953,1.9531,0,1.9039,1.9045,1.9086,1.9129,1.9163,1.9198,1.9231,1.9253,1.9268,1.9301,1.9349,1.9379,1.9436,1.9482,1.9526,1.9545,1.9541,1.9542,1.9553,1.9552,1.9545,1.9549,1.9427,1.9539,1.9538,1.9537,1.9537,1.9537,1.9107,1.9143,1.9177,1.9222,1.9248,1.9279,1.9315,1.9333,1.9374,1.9421,1.9425,1.9477,1.9509,1.9567,1.9589,1.9629,1.9617,1.9634,1.9638,1.9642,1.9645,1.9538,1.9637,1.9637,1.9637,1.9636,1.9636,0,1.9204,1.9226,1.9267,1.9314,1.9349,1.9341,1.9377,1.9407,1.9452,1.9483,1.952,1.9575,1.9619,1.9643,1.9687,1.9714,1.9713,1.9725,1.9723,1.9728,1.9653,1.9639,1.9725,1.9725,1.9725,1.9725,1.9725,1.9725,1.9259,1.9319,1.9329,1.9401,1.9422,1.9472,1.9494,1.9522,1.9546,1.9607,1.9644,1.9659,1.9687,1.9732,1.9772,1.9778,1.9794,1.9808,1.9812,1.9742,1.9733,1.9725,1.9711,1.9811,1.9811,1.9884,1.9884,1.9885]}]]